Home   Weather   Perchtoldsdorf   Past weeks

Flag for Austria Past Weather in Perchtoldsdorf, Lower Austria, Austria — Yesterday and Last 2 Weeks

Now
28 °F

Overcast.


Feels Like: 24 °F
Forecast: 11 / 23 °F
Wind: 3 mph from North

Location: Wien / Hohe Warte

Current Time: Jan 18, 2017 at 1:14:30 pm

Latest Report: Jan 18, 2017 at 12:00 pm


Visibility: 9 mi

Pressure: 30.63 "Hg

Humidity: 69%

Dew Point: 19 °F

Location of PerchtoldsdorfLocation

Past Weather in Perchtoldsdorf — Graph

°F

Perchtoldsdorf Temperature Yesterday

Maximum temperature yesterday: 31 °F (at 3:00 pm)
Minimum temperature yesterday: 26 °F (at 1:00 am)
Average temperature yesterday: 28 °F

High & Low Weather Summary for the Past Weeks

 TemperatureHumidityPressure
High44 °F (Jan 12, 1:00 pm)92% (Jan 8, 6:00 am)30.66 "Hg (Jan 8, 6:00 am)
Low10 °F (Jan 11, 7:00 am)41% (Jan 7, 2:00 pm)29.41 "Hg (Jan 13, 6:00 am)
Average28 °F71%30.14 "Hg
* Reported Jan 3 11:00 am — Jan 18 11:00 am, Perchtoldsdorf, Weather by CustomWeather, © 2017

Note: Actual official high and low records may vary slightly from our data, if they occured in-between our weather recording intervals... More about our weather records

Advertising

Perchtoldsdorf Weather History for the Previous 24 Hours

Scroll right to see more
 ConditionsComfort  
Time TempWeatherWind HumidityBarometerVisibility
11:00 am
Wed, Jan 18
27 °FPartly sunny.5 mph69%30.64 "Hg9 mi
10:00 am27 °FScattered clouds.5 mph69%30.63 "Hg9 mi
9:00 am26 °FPassing clouds.3 mph74%30.62 "Hg9 mi
8:00 am25 °FPassing clouds.3 mph76%30.60 "Hg7 mi
7:00 am26 °FOvercast.5 mph74%30.59 "Hg6 mi
6:00 am26 °FPassing clouds.6 mph73%30.57 "Hg7 mi
5:00 am27 °FChilly.6 mph72%30.57 "HgN/A
4:00 am27 °FChilly.6 mph73%30.57 "HgN/A
3:00 am27 °FChilly.6 mph71%30.57 "HgN/A
2:00 am28 °FChilly.6 mph69%30.56 "HgN/A
1:00 am28 °FPassing clouds.6 mph68%30.55 "Hg10 mi
12:00 am28 °FChilly.6 mph68%30.55 "HgN/A
11:00 pm
Tue, Jan 17
28 °FChilly.6 mph70%30.55 "HgN/A
10:00 pm28 °FPassing clouds.6 mph71%30.55 "Hg9 mi
9:00 pm28 °FPassing clouds.6 mph71%30.54 "Hg43 mi
8:00 pm29 °FChilly.7 mph69%30.52 "HgN/A
7:00 pm29 °FPassing clouds.5 mph70%30.51 "Hg11 mi
6:00 pm29 °FPassing clouds.7 mph71%30.50 "Hg13 mi
5:00 pm30 °FOvercast.6 mph70%30.47 "Hg14 mi
4:00 pm31 °FOvercast.6 mph70%30.46 "Hg14 mi
3:00 pm31 °FOvercast.5 mph69%30.46 "Hg13 mi
2:00 pm30 °FOvercast.6 mph68%30.45 "Hg12 mi
1:00 pm30 °FOvercast.5 mph69%30.45 "Hg15 mi
Weather by CustomWeather, © 2017

See weather overviewHow to use our weather pages